(115307) = 2003 SO210

Discovered at Socorro on 2003-09-26 by LINEAR.

Orbit

Orbit type: Main Belt

Note: WebGL enabled browser required.

epoch2024-03-31.0
epoch JD2460400.5
perihelion date2023-03-01.41989
perihelion JD2460004.91989
argument of perihelion (°)91.72000
ascending node (°)9.16355
inclination (°)10.84721
eccentricity0.1466170
perihelion distance (AU)2.3751093
Tisserand w.r.t. Jupiter3.3
ΔV w.r.t. Earth (km/sec)10.2
semimajor axis (AU)2.7831693
mean anomaly (°)83.97091
mean daily motion (°/day)0.21227280
aphelion distance (AU)3.191
period (years)4.64
P-vector [x]-0.18596935
P-vector [y]0.80997848
P-vector [z]0.55619265
Q-vector [x]-0.98209837
Q-vector [y]-0.17050039
Q-vector [z]-0.08007756
absolute magnitude15.06
phase slope0.15
uncertainty0
referenceMPEC 2024-E11
observations used886
oppositions15
arc length (days)8799
first opposition used1999
last opposition used2024
residual rms (arc-secs)0.73
perturbers coarse indicatorM-v
perturbers precise indicator003Ek
first observation date used1999-12-13.0
last observation date used2024-01-15.0
computer nameMPCLINUX
JD of orbit computation2456819.506234
perihelion JD uncertainty (days)1.0858E-04
argument of perihelion uncertainty (°)3.8805E-05
ascending node uncertainty (°)2.7619E-05
inclination uncertainty (°)6.0315E-06
eccentricity uncertainty 4.6172E-08
perihelion distance uncertainty (AU)1.2759E-07
Minimum Orbit Intersection Distances (in AU)
for orbit epoch: 2460400.5, reference: E2024-GD4
Mercury2.06211
Venus1.66977
Earth1.42208
Mars0.80732
Jupiter2.03274
Saturn6.68176
Uranus15.7724
Neptune27.0313

Observations

918 total observations over interval: 1999 12 13.35024 – 2024 01 15.553747
These data are available for download (format description).

Date (UT) J2000 RA J2000 Dec Magn Location Ref
1999 12 13.35024 07 59 11.05 +38 09 09.6 18.8   704 – Lincoln Laboratory ETS, New Mexico MPS 90535
1999 12 13.36505 07 59 10.66 +38 09 14.7 19.4   704 – Lincoln Laboratory ETS, New Mexico MPS 90535
1999 12 13.37982 07 59 10.09 +38 09 20.3 19.0   704 – Lincoln Laboratory ETS, New Mexico MPS 90535
1999 12 13.39476 07 59 09.69 +38 09 25.9 19.1   704 – Lincoln Laboratory ETS, New Mexico MPS 90535
1999 12 13.40951 07 59 09.16 +38 09 31.3 19.1   704 – Lincoln Laboratory ETS, New Mexico MPS 90535
2000 01 11.33058 07 32 24.63 +40 02 15.7 18.3 R 699 – Lowell Observatory-LONEOS MPS 90535
2000 01 11.35604 07 32 22.80 +40 02 17.3   699 – Lowell Observatory-LONEOS MPS 90535
2000 01 11.38152 07 32 20.94 +40 02 19.1   699 – Lowell Observatory-LONEOS MPS 90535
2000 01 27.24549 07 14 59.10 +39 44 35.9 18.5   704 – Lincoln Laboratory ETS, New Mexico MPS 90535
2000 01 27.26057 07 14 58.18 +39 44 32.9 18.9   704 – Lincoln Laboratory ETS, New Mexico MPS 90535
2000 01 27.27565 07 14 57.33 +39 44 30.4 18.9   704 – Lincoln Laboratory ETS, New Mexico MPS 90535
2000 04 04.174150 07 27 31.059 +32 17 51.91 19.87 V 645 – Apache Point-Sloan Digital Sky Survey MPS 142650
2000 04 04.177622 07 27 31.290 +32 17 50.21 20.76   645 – Apache Point-Sloan Digital Sky Survey MPS 142650
2002 07 16.30618 20 14 00.10 -35 27 46.5 20.6   644 – Palomar Mountain/NEAT MPS 91002
2002 07 16.32708 20 13 58.86 -35 27 49.1 20.4   644 – Palomar Mountain/NEAT MPS 91002
2002 07 16.34802 20 13 57.57 -35 27 53.0 20.3   644 – Palomar Mountain/NEAT MPS 91002
2003 09 04.98085 01 44 12.96 +11 41 00.1 19.2 R 106 – Crni Vrh MPS 89494
2003 09 05.00185 01 44 12.59 +11 41 03.5 19.1 R 106 – Crni Vrh MPS 89494
2003 09 05.02226 01 44 12.18 +11 41 06.1 19.4 R 106 – Crni Vrh MPS 89494
2003 09 16.42277 01 39 22.77 +12 02 52.0 19.4 V 691 – Steward Observatory, Kitt Peak-Spacewatch MPS 89494
2003 09 16.45063 01 39 21.77 +12 02 54.1 19.5 V 691 – Steward Observatory, Kitt Peak-Spacewatch MPS 89494
2003 09 16.47812 01 39 20.79 +12 02 56.3 19.4 V 691 – Steward Observatory, Kitt Peak-Spacewatch MPS 89494
2003 09 26.30135 01 32 39.81 +12 10 03.4 19.4   704 – Lincoln Laboratory ETS, New Mexico MPS 86346
2003 09 26.31415 01 32 39.17 +12 10 03.6 19.3   704 – Lincoln Laboratory ETS, New Mexico MPS 86346
2003 09 26.32689 01 32 38.58 +12 10 03.2 19.5   704 – Lincoln Laboratory ETS, New Mexico MPS 86346
2003 09 26.33952 01 32 37.99 +12 10 03.7 19.7   704 – Lincoln Laboratory ETS, New Mexico MPS 86346
2003 09 27.31239 01 31 51.47 +12 10 14.8 19.4   704 – Lincoln Laboratory ETS, New Mexico MPS 86346
2003 09 27.32538 01 31 50.69 +12 10 14.6 19.7   704 – Lincoln Laboratory ETS, New Mexico MPS 86346
2003 09 27.33859 01 31 49.97 +12 10 14.3 19.9   704 – Lincoln Laboratory ETS, New Mexico MPS 86346
2003 09 27.35151 01 31 49.43 +12 10 14.5 20.0   704 – Lincoln Laboratory ETS, New Mexico MPS 86346
2003 10 21.28230 01 09 22.55 +11 47 42.4 18.8   704 – Lincoln Laboratory ETS, New Mexico MPS 89494
2003 10 21.29433 01 09 21.83 +11 47 40.9 18.9   704 – Lincoln Laboratory ETS, New Mexico MPS 89494
2003 10 21.30647 01 09 21.08 +11 47 39.5 19.0   704 – Lincoln Laboratory ETS, New Mexico MPS 89494
2003 10 21.31837 01 09 20.39 +11 47 39.1 18.8   704 – Lincoln Laboratory ETS, New Mexico MPS 89494
2003 10 21.33013 01 09 19.69 +11 47 37.5 19.0   704 – Lincoln Laboratory ETS, New Mexico MPS 89494
2003 10 25.20798 01 05 37.29 +11 41 08.5 18.8   704 – Lincoln Laboratory ETS, New Mexico MPS 89494
2003 10 25.21993 01 05 36.61 +11 41 07.0 18.8   704 – Lincoln Laboratory ETS, New Mexico MPS 89494
2003 10 25.23236 01 05 35.89 +11 41 06.0 19.0   704 – Lincoln Laboratory ETS, New Mexico MPS 89494
2003 10 25.24471 01 05 35.16 +11 41 05.0 19.2   704 – Lincoln Laboratory ETS, New Mexico MPS 89494
2003 10 25.25640 01 05 34.48 +11 41 03.4 19.0   704 – Lincoln Laboratory ETS, New Mexico MPS 89494
2003 10 30.23910 01 01 03.31 +11 32 41.3 18.4   704 – Lincoln Laboratory ETS, New Mexico MPS 89494
2003 10 30.25277 01 01 02.52 +11 32 40.2 18.8   704 – Lincoln Laboratory ETS, New Mexico MPS 89494
2003 10 30.28702 01 01 00.71 +11 32 37.1 19.0   704 – Lincoln Laboratory ETS, New Mexico MPS 89494
2003 11 01.19848 00 59 22.81 +11 29 32.0 18.4   704 – Lincoln Laboratory ETS, New Mexico MPS 90535
2003 11 01.21051 00 59 22.18 +11 29 30.6 18.6   704 – Lincoln Laboratory ETS, New Mexico MPS 90535
2003 11 01.22236 00 59 21.57 +11 29 30.0 18.9   704 – Lincoln Laboratory ETS, New Mexico MPS 90535
2003 11 01.23434 00 59 20.92 +11 29 28.9 18.6   704 – Lincoln Laboratory ETS, New Mexico MPS 90535
2003 11 01.24630 00 59 20.28 +11 29 27.5 18.6   704 – Lincoln Laboratory ETS, New Mexico MPS 90535
2003 11 19.12050 00 47 50.88 +11 11 04.0 19.4 V 703 – Catalina Sky Survey MPS 91002
2003 11 19.13065 00 47 50.65 +11 11 04.9 19.2 V 703 – Catalina Sky Survey MPS 91002
2003 11 19.14076 00 47 50.33 +11 11 05.1 19.1 V 703 – Catalina Sky Survey MPS 91002
2003 11 19.15088 00 47 50.06 +11 11 04.9 19.1 V 703 – Catalina Sky Survey MPS 91002
2003 11 20.20157 00 47 24.56 +11 10 51.7 19.7   704 – Lincoln Laboratory ETS, New Mexico MPS 91002
2003 11 20.21470 00 47 24.10 +11 10 51.2 20.7   704 – Lincoln Laboratory ETS, New Mexico MPS 91002
2003 11 20.22778 00 47 23.87 +11 10 51.5 19.8   704 – Lincoln Laboratory ETS, New Mexico MPS 91002
2003 11 20.24077 00 47 23.54 +11 10 49.2 20.4   704 – Lincoln Laboratory ETS, New Mexico MPS 91002
2003 11 20.25366 00 47 23.17 +11 10 50.9 19.9   704 – Lincoln Laboratory ETS, New Mexico MPS 91002
2004 12 11.42732 11 07 32.43 +16 27 51.2 19.1 R 699 – Lowell Observatory-LONEOS MPS 121742
2004 12 11.43705 11 07 32.97 +16 27 51.0   699 – Lowell Observatory-LONEOS MPS 121742
2004 12 11.44680 11 07 33.40 +16 27 47.9   699 – Lowell Observatory-LONEOS MPS 121742
2004 12 11.45654 11 07 33.94 +16 27 46.5   699 – Lowell Observatory-LONEOS MPS 121742
2004 12 22.41794 11 15 17.78 +15 55 36.9 18.1 R 703 – Catalina Sky Survey MPS 122704
2004 12 22.42667 11 15 18.03 +15 55 35.4 18.8 R 703 – Catalina Sky Survey MPS 122704
2004 12 22.43536 11 15 18.38 +15 55 33.2 18.4 R 703 – Catalina Sky Survey MPS 122704
2004 12 22.44405 11 15 18.66 +15 55 33.0 18.6 R 703 – Catalina Sky Survey MPS 122704
2005 02 03.38905 11 14 04.54 +16 17 51.6 18.5   704 – Lincoln Laboratory ETS, New Mexico MPS 126378
2005 02 03.41548 11 14 03.47 +16 17 55.2 18.9   704 – Lincoln Laboratory ETS, New Mexico MPS 126378
2005 02 03.42842 11 14 02.86 +16 17 59.6 18.7   704 – Lincoln Laboratory ETS, New Mexico MPS 126378
2005 03 02.33181 10 49 53.06 +17 18 39.9 17.6 R 703 – Catalina Sky Survey MPS 127181
2005 03 02.34039 10 49 52.50 +17 18 40.4 17.6 R 703 – Catalina Sky Survey MPS 127181
2005 03 02.34890 10 49 51.95 +17 18 40.9 17.7 R 703 – Catalina Sky Survey MPS 127181
2005 03 02.35741 10 49 51.42 +17 18 41.3 17.6 R 703 – Catalina Sky Survey MPS 127181
2005 03 11.22619 10 41 10.16 +17 23 11.1 17.8 R 703 – Catalina Sky Survey MPS 127953
2005 03 11.23169 10 41 09.81 +17 23 11.2 17.9 R 703 – Catalina Sky Survey MPS 127953
2005 03 11.23720 10 41 09.48 +17 23 11.0 17.7 R 703 – Catalina Sky Survey MPS 127953
2005 03 11.24272 10 41 09.17 +17 23 11.2 17.9 R 703 – Catalina Sky Survey MPS 127953
2005 03 11.27228 10 41 07.44 +17 23 10.7 17.9 R 703 – Catalina Sky Survey MPS 127953
2005 03 11.27977 10 41 06.99 +17 23 10.8 17.6 R 703 – Catalina Sky Survey MPS 127953
2005 03 11.28723 10 41 06.53 +17 23 10.6 17.7 R 703 – Catalina Sky Survey MPS 127953
2005 03 11.29092 10 41 06.37 +17 23 10.9 17.9 R 699 – Lowell Observatory-LONEOS MPS 129069
2005 03 11.29472 10 41 06.13 +17 23 10.8 17.6 R 703 – Catalina Sky Survey MPS 127953
2005 03 11.30718 10 41 05.46 +17 23 10.6   699 – Lowell Observatory-LONEOS MPS 129069
2005 03 11.32347 10 41 04.53 +17 23 10.5   699 – Lowell Observatory-LONEOS MPS 129069
2005 03 11.33972 10 41 03.59 +17 23 09.7   699 – Lowell Observatory-LONEOS MPS 129069
2005 03 16.28382 10 36 37.99 +17 20 17.5 17.9 R 703 – Catalina Sky Survey MPS 129069
2005 03 16.29236 10 36 37.54 +17 20 17.0 18.0 R 703 – Catalina Sky Survey MPS 129069
2005 03 16.30090 10 36 37.08 +17 20 16.7 17.8 R 703 – Catalina Sky Survey MPS 129069
2005 03 16.30946 10 36 36.62 +17 20 16.4 17.9 R 703 – Catalina Sky Survey MPS 129069
